Regional Weather Roundup
Issued by NWS Goodland, KS

Home | Current Version | Previous Version | Graphics & Text | Print | Product List | Glossary On
Versions: 1 2 3 4 5 6 7 8 9 10 11 12 13 14 15 16 17 18 19 20 21 22 23 24 25 26 27 28 29 30 31 32 33 34 35 36 37 38 39 40 41 42 43 44 45 46 47 48 49 50
000
ASUS43 KGLD 250008
RWRGLD

GOODLAND FORECAST AREA HOURLY WEATHER ROUNDUP
NATIONAL WEATHER SERVICE GOODLAND KS
500 PM MST SAT JAN 24 2015

...OFFICIAL OBSERVATIONS...

CITY           SKY/WX    TMP DP  RH WIND       PRES   REMARKS
GOODLAND KS    CLOUDY    43  31  62 NW8       29.93F
HILL CITY KS   CLOUDY    47  40  76 W14       29.84F
IMPERIAL NEB   MOCLDY    44  31  60 W10       29.88R
MCCOOK NEB     CLOUDY    47  34  60 W10       29.84F
AKRON CO       CLOUDY    44  26  49 NW18      29.96R
BURLINGTON CO  CLOUDY    42  28  57 NW9       29.94F
LIMON CO       CLOUDY    43  22  43 NW14      29.98F
$$

...UNOFFICIAL OBSERVATIONS...

CITY           SKY/WX    TMP DP  RH WIND       PRES   REMARKS
COLBY KS       CLOUDY    43  39  87 W7        29.91S
GOVE KS          N/A     47  32  56 MISG        N/A
NORTON KS      MOCLDY    45  36  70 W14       29.82S
SHARON SPRINGS   N/A     50  30  45 N12         N/A
KIT CARSON CO    N/A     48  22  36 MISG        N/A
YUMA CO          N/A     42  29  61 W13         N/A
$$



USA.gov is the U.S. government's official web portal to all federal, state and local government web resources and services.